[[{"header":{"parameterUnit":"m.s-1","parameterCategory":1,"la1":30.2991,"la2":30.254,"lo1":-89.0895,"lo2":-89.0444,"dx":0.0017,"dy":0.0017,"nx":28,"ny":28,"refTime":"2023-01-23T03:00:00:Z","depth":0,"parameterNumber":2,"parameterNumberName":"U-component_of_WINDS"},"data":[0,0,0,0,0,0,0,0,0,0,0,0,0,0,0,0,0,0,0,0,0,0,0,0,0,0,0,0,0,0,0,0,0,0,0,0,0,0,0,0,0,0,0,0,0,0,0,0,0,0,0,0,0,0,0,0,0,0,-6.5857,-6.586,0,-6.6069,-6.6071,-6.6073,-6.6152,-6.6151,-6.6151,-6.615,-6.6361,-6.6367,-6.6373,0,0,0,0,0,0,0,0,0,0,0,0,0,-6.5517,-6.5523,-6.5857,-6.586,-6.5862,-6.6068,-6.6071,-6.6074,-6.6152,-6.6151,-6.615,-6.615,-6.6359,-6.6367,-6.6374,0,0,0,0,0,0,0,0,0,0,0,0,0,-6.569,-6.5525,-6.5857,-6.5926,-6.5935,-6.6068,-6.6071,-6.6075,-6.6152,-6.6151,-6.615,-6.6149,-6.6357,-6.6366,-6.6375,-6.6453,0,0,-6.6404,-6.6408,0,0,0,0,0,0,0,0,-6.568,-6.5703,-6.5913,-6.5922,-6.5931,-6.6083,-6.6029,-6.6201,-6.6152,-6.6069,-6.615,-6.6149,-6.6269,-6.6286,-6.6327,-6.6463,-6.6472,-6.6404,-6.641,-6.6414,-6.6417,0,0,0,0,0,0,0,-6.5668,-6.5694,-6.5941,-6.5916,-6.5927,-6.5946,-6.5969,-6.6062,-6.6172,-6.6077,-6.6083,-6.6107,-6.6274,-6.6318,-6.6333,-6.6475,-6.6404,-6.6413,-6.6418,-6.6422,-6.6686,-6.6687,0,0,0,0,0,0,-6.5645,-6.5683,-6.5934,-6.5947,-6.5801,-6.5953,-6.5979,-6.6035,-6.6171,-6.6191,-6.6108,-6.611,-6.6303,-6.6322,-6.634,-6.6441,-6.6414,-6.6423,-6.6428,-6.6684,-6.6686,-6.6688,0,0,0,0,0,0,-6.5638,-6.5667,-6.5925,-6.5817,-6.5852,-6.596,-6.6022,-6.604,-6.6084,-6.6195,-6.6214,-6.6133,-6.6303,-6.6327,-6.6425,-6.6449,-6.6427,-6.6436,-6.6683,-6.6685,-6.6687,-6.6642,0,0,0,0,0,0,-6.5628,-6.5664,-6.5695,-6.5817,-6.5857,-6.6007,-6.6024,-6.6045,-6.6101,-6.6106,-6.6224,-6.6242,-6.6304,-6.6411,-6.6434,-6.6462,-6.6443,-6.6681,-6.6684,-6.6686,-6.6642,-6.6642,-6.6643,0,0,0,0,0,-6.5615,-6.5673,-6.5696,-6.5726,-6.5899,-6.6008,-6.6031,-6.6102,-6.6103,-6.6134,-6.6206,-6.6239,-6.6443,-6.642,-6.6447,-6.6478,-6.668,-6.6683,-6.6686,-6.6641,-6.6642,-6.6643,0,0,0,0,0,0,-6.5548,-6.569,-6.5717,-6.5816,-6.59,-6.6021,-6.6064,-6.61,-6.6184,-6.6185,-6.6268,-6.6294,-6.6384,-6.6441,-6.6413,-6.6561,-6.6564,-6.6572,-6.652,-6.6522,-6.6522,-6.6506,-6.6451,0,0,0,0,0,-6.5545,-6.5624,-6.5743,-6.5819,-6.586,-6.5954,-6.6005,-6.6053,-6.6142,-6.6177,-6.6255,-6.6339,-6.6423,-6.6476,-6.6559,-6.6651,-6.6677,-6.6686,-6.6686,-6.6686,-6.6692,-6.6745,-6.675,-6.6698,-6.6698,-6.6698,0,0,-6.5539,-6.5626,-6.567,-6.5807,-6.5878,-6.5956,-6.5983,-6.6065,-6.6124,-6.6189,-6.6286,-6.6347,-6.6446,-6.6541,-6.6587,-6.6592,-6.6713,-6.669,-6.6689,-6.6695,-6.6749,-6.6754,-6.6758,-6.67,-6.67,-6.6699,0,0,-6.5568,-6.5642,-6.5714,-6.5785,-6.5892,-6.5955,-6.5972,-6.6089,-6.6132,-6.6232,-6.6283,-6.6353,-6.6495,-6.6564,-6.6618,-6.6675,-6.6708,-6.67,-6.6702,-6.6753,-6.6757,-6.6761,-6.6781,-6.6787,-6.6706,-6.6706,-6.6706,0,-6.5546,-6.5668,-6.5745,-6.5826,-6.5884,-6.5949,-6.6022,-6.6086,-6.6214,-6.6252,-6.6256,-6.6437,-6.6508,-6.6621,-6.6635,-6.6676,-6.6698,-6.6686,-6.675,-6.6755,-6.676,-6.678,-6.6788,-6.6704,-6.6704,-6.6704,-6.6705,0,-6.5636,-6.572,-6.5765,-6.5889,-6.5953,-6.6028,-6.6116,-6.6171,-6.6214,-6.6276,-6.6377,-6.6466,-6.6568,-6.6599,-6.664,-6.6718,-6.6717,-6.6734,-6.6738,-6.6762,-6.6782,-6.6791,-6.6701,-6.6702,-6.6703,-6.6703,0,0,-6.5627,-6.5795,-6.5809,-6.5867,-6.5991,-6.6057,-6.6135,-6.6237,-6.6283,-6.6369,-6.6437,-6.6557,-6.6574,-6.6635,-6.6685,-6.673,-6.677,-6.6743,-6.6746,-6.6744,-6.6861,-6.6846,-6.6854,-6.6794,-6.6796,-6.6797,-6.6852,0,-6.5671,-6.5816,-6.5889,-6.6002,-6.608,-6.6144,-6.6213,-6.6296,-6.6357,-6.6431,-6.6498,-6.6581,-6.6599,-6.6636,-6.6683,-6.6755,-6.6794,-6.6752,-6.6856,-6.6859,-6.6828,-6.6864,-6.6849,-6.6896,-6.6861,-6.6862,-6.6863,0,-6.5743,-6.5831,-6.5952,-6.6068,-6.6104,-6.6164,-6.6264,-6.6335,-6.643,-6.6471,-6.654,-6.659,-6.6674,-6.6674,-6.6791,-6.6761,-6.6808,-6.685,-6.6853,-6.6864,-6.6861,-6.6875,-6.6913,-6.692,-6.6876,-6.6875,-6.6874,0,-6.5723,-6.5872,-6.5964,-6.6011,-6.6149,-6.619,-6.6249,-6.6344,-6.6401,-6.6488,-6.6526,-6.6621,-6.6672,-6.6744,-6.6818,-6.6811,-6.6928,-6.6934,-6.6964,-6.6962,-6.6984,-6.6981,-6.7029,-6.7016,-6.7016,-6.7016,-6.7016,0,-6.5765,-6.5836,-6.5957,-6.6013,-6.6095,-6.6178,-6.6257,-6.6321,-6.6405,-6.6474,-6.6535,-6.6598,-6.6693,-6.6768,-6.6826,-6.6914,-6.6937,-6.6972,-6.6986,-6.6966,-6.6961,-6.6997,-6.6995,-6.7018,-6.7017,-6.7017,-6.7017,0,-6.5756,-6.584,-6.5944,-6.6067,-6.61,-6.6154,-6.6259,-6.6316,-6.6381,-6.6468,-6.6493,-6.6594,-6.6686,-6.6767,-6.6888,-6.6928,-6.7017,-6.7036,-6.6985,-6.6993,-6.7018,-6.7014,-6.7089,-6.7103,-6.7081,-6.7081,-6.7081,0,-6.5776,-6.5833,-6.5962,-6.6014,-6.6073,-6.6155,-6.6214,-6.6298,-6.6357,-6.6471,-6.6514,-6.6611,-6.6693,-6.6836,-6.692,-6.7013,-6.7033,-6.7053,-6.7047,-6.7025,-6.7033,-6.7028,-6.7034,-6.7052,-6.7052,-6.7051,-6.7051,0,-6.5803,-6.5843,-6.5927,-6.6025,-6.6095,-6.6176,-6.6259,-6.6298,-6.6397,-6.6461,-6.6556,-6.662,-6.6745,-6.6839,-6.6942,-6.7002,-6.7043,-6.7053,-6.7065,-6.7044,-6.7012,-6.7029,-6.6983,-6.705,-6.705,-6.7051,-6.7051,-6.7051,-6.581,-6.5864,-6.5963,-6.6055,-6.6127,-6.6203,-6.6263,-6.6337,-6.6418,-6.6527,-6.6572,-6.6669,-6.6764,-6.6907,-6.6967,-6.7043,-6.7051,-6.7067,-6.7072,-6.7074,-6.707,-6.7001,-6.7062,-6.7062,-6.7063,-6.7063,-6.7063,0,-6.584,-6.5908,-6.5991,-6.6107,-6.6179,-6.6214,-6.6308,-6.6365,-6.645,-6.6536,-6.6616,-6.6726,-6.6819,-6.6911,-6.7008,-6.7052,-6.7073,-6.7075,-6.7071,-6.7085,-6.7059,-6.7038,-6.7056,-6.7056,-6.7056,-6.7056,-6.7056,-6.7056,-6.5864,-6.5957,-6.6008,-6.6137,-6.6205,-6.6301,-6.6352,-6.6423,-6.6492,-6.6613,-6.6691,-6.6751,-6.6839,-6.6944,-6.7031,-6.7055,-6.7088,-6.7084,-6.7113,-6.7087,-6.7086,-6.7086,-6.7067,-6.709,-6.709,-6.7133,-6.7133,-6.7134]},{"header":{"parameterUnit":"m.s-1","parameterCategory":1,"la1":30.2991,"la2":30.254,"lo1":-89.0895,"lo2":-89.0444,"dx":0.0017,"dy":0.0017,"nx":28,"ny":28,"refTime":"2023-01-23T03:00:00:Z","depth":0,"parameterNumber":3,"parameterNumberName":"V-component_of_WINDS"},"data":[0,0,0,0,0,0,0,0,0,0,0,0,0,0,0,0,0,0,0,0,0,0,0,0,0,0,0,0,0,0,0,0,0,0,0,0,0,0,0,0,0,0,0,0,0,0,0,0,0,0,0,0,0,0,0,0,0,0,6.1156,6.1157,0,6.118,6.118,6.118,6.1153,6.1152,6.1151,6.115,6.1172,6.1173,6.1175,0,0,0,0,0,0,0,0,0,0,0,0,0,6.1088,6.1089,6.1156,6.1157,6.1157,6.118,6.118,6.1181,6.1153,6.1152,6.115,6.1149,6.1171,6.1173,6.1175,0,0,0,0,0,0,0,0,0,0,0,0,0,6.1115,6.109,6.1156,6.1146,6.1145,6.118,6.118,6.1181,6.1153,6.1152,6.115,6.1149,6.117,6.1173,6.1175,6.122,0,0,6.1182,6.1183,0,0,0,0,0,0,0,0,6.1114,6.1118,6.1147,6.1147,6.1146,6.1162,6.1164,6.1194,6.1154,6.115,6.115,6.1148,6.1169,6.1172,6.1179,6.1221,6.1222,6.1182,6.1184,6.1185,6.1185,0,0,0,0,0,0,0,6.1112,6.1117,6.1166,6.1148,6.1147,6.114,6.1143,6.117,6.1168,6.115,6.1148,6.1152,6.1169,6.1177,6.118,6.1222,6.1182,6.1184,6.1186,6.1187,6.1306,6.1307,0,0,0,0,0,0,6.1111,6.1115,6.1165,6.1166,6.1126,6.1143,6.1145,6.1158,6.1168,6.1168,6.1153,6.115,6.1174,6.1177,6.118,6.1236,6.1185,6.1187,6.1188,6.1304,6.1306,6.1308,0,0,0,0,0,0,6.111,6.1116,6.1164,6.114,6.1146,6.1146,6.1161,6.116,6.1168,6.117,6.1169,6.1162,6.1173,6.1177,6.1211,6.1237,6.1188,6.119,6.1302,6.1304,6.1307,6.1347,0,0,0,0,0,0,6.1108,6.1116,6.1132,6.1141,6.1147,6.1195,6.1162,6.1161,6.1172,6.1169,6.1178,6.1178,6.1172,6.1208,6.1214,6.1239,6.1192,6.1299,6.1303,6.1306,6.1343,6.135,6.1357,0,0,0,0,0,6.1106,6.1141,6.1133,6.1139,6.1168,6.1196,6.12,6.1193,6.1174,6.1192,6.1194,6.1178,6.1233,6.1212,6.1218,6.1244,6.1298,6.1302,6.1306,6.134,6.1349,6.1356,0,0,0,0,0,0,6.1134,6.1142,6.1133,6.1173,6.1184,6.1191,6.1213,6.1202,6.1218,6.1214,6.1204,6.1206,6.1244,6.1247,6.1223,6.129,6.1262,6.1268,6.1286,6.1295,6.1301,6.13,6.1194,0,0,0,0,0,6.1145,6.1167,6.1173,6.1207,6.1214,6.1213,6.1224,6.1218,6.1229,6.1233,6.1237,6.1248,6.1268,6.1281,6.13,6.1344,6.1346,6.1365,6.1371,6.1377,6.1382,6.1408,6.1418,6.1321,6.1321,6.1321,0,0,6.1168,6.1175,6.1189,6.1213,6.1221,6.1245,6.1216,6.1242,6.1259,6.1237,6.127,6.1274,6.1286,6.1326,6.1343,6.133,6.141,6.1382,6.1387,6.1389,6.1414,6.1423,6.1431,6.1324,6.1323,6.1323,0,0,6.1222,6.1228,6.126,6.1269,6.1283,6.1282,6.129,6.1299,6.1301,6.1335,6.132,6.134,6.1374,6.1384,6.1394,6.1456,6.1443,6.1462,6.1497,6.1523,6.153,6.1537,6.1561,6.157,6.1466,6.1467,6.1467,0,6.1248,6.1283,6.1276,6.1305,6.1317,6.1299,6.1331,6.134,6.1359,6.1368,6.1352,6.1397,6.1403,6.1447,6.1463,6.147,6.148,6.1461,6.153,6.1537,6.1543,6.1566,6.1575,6.1469,6.1469,6.1468,6.1468,0,6.1316,6.1341,6.1365,6.1386,6.14,6.1429,6.1428,6.1444,6.1437,6.1439,6.1475,6.1482,6.1503,6.1513,6.1506,6.1557,6.1548,6.1532,6.1504,6.1555,6.1576,6.1585,6.1472,6.1472,6.1471,6.147,0,0,6.1387,6.1406,6.1415,6.1426,6.1441,6.146,6.149,6.1512,6.1527,6.154,6.1566,6.1597,6.1583,6.1594,6.1588,6.161,6.1662,6.1591,6.1592,6.1606,6.1722,6.1735,6.1745,6.1654,6.1655,6.1656,6.1721,0,6.1443,6.1496,6.1493,6.1543,6.1567,6.1553,6.1579,6.1591,6.1594,6.1615,6.1618,6.1641,6.1619,6.1626,6.1648,6.1651,6.1686,6.1646,6.1678,6.168,6.1678,6.1756,6.177,6.1831,6.1729,6.1731,6.1732,0,6.1515,6.1535,6.1588,6.1602,6.1612,6.1636,6.1658,6.1678,6.1693,6.1693,6.1707,6.1699,6.173,6.1701,6.1745,6.1719,6.1732,6.1736,6.1738,6.1741,6.171,6.1764,6.185,6.186,6.1745,6.1744,6.1743,0,6.1565,6.1604,6.1642,6.1651,6.1668,6.1686,6.1693,6.1706,6.1721,6.174,6.175,6.1771,6.1783,6.18,6.1798,6.1777,6.1844,6.1814,6.1846,6.1846,6.1861,6.1861,6.1952,6.1867,6.1867,6.1867,6.1866,0,6.1629,6.1663,6.1665,6.1688,6.1726,6.1722,6.1759,6.1765,6.1778,6.1802,6.179,6.1813,6.1808,6.1832,6.183,6.1868,6.1873,6.1875,6.1875,6.1877,6.1877,6.1886,6.1883,6.1869,6.1869,6.1868,6.1868,0,6.1691,6.1694,6.1734,6.1748,6.1753,6.178,6.1792,6.1815,6.1818,6.1849,6.1856,6.186,6.1888,6.1888,6.1918,6.1917,6.1964,6.1958,6.196,6.1959,6.1992,6.199,6.2094,6.2109,6.2012,6.2013,6.2014,0,6.1733,6.1759,6.1777,6.1793,6.1803,6.1829,6.1845,6.1842,6.1859,6.188,6.19,6.1927,6.1948,6.1993,6.1998,6.2022,6.2017,6.2052,6.2021,6.2024,6.2021,6.202,6.2024,6.2059,6.206,6.2061,6.2061,0,6.1807,6.1808,6.1832,6.1857,6.1877,6.1896,6.1913,6.1927,6.1927,6.1947,6.1976,6.1992,6.2025,6.2052,6.2076,6.2084,6.2074,6.2071,6.2081,6.2084,6.2086,6.2088,6.1979,6.2069,6.2068,6.2068,6.2067,6.2067,6.1862,6.1886,6.1903,6.1931,6.1944,6.1962,6.1985,6.1992,6.2016,6.2044,6.204,6.2073,6.2089,6.212,6.2131,6.2157,6.2144,6.2157,6.216,6.2164,6.2169,6.208,6.2161,6.216,6.216,6.216,6.216,0,6.1938,6.1949,6.1975,6.2001,6.2024,6.2013,6.2033,6.2052,6.2081,6.2098,6.212,6.2155,6.2182,6.219,6.2217,6.2236,6.2232,6.2243,6.2242,6.2245,6.2177,6.2168,6.2246,6.2246,6.2246,6.2246,6.2246,6.2246,6.198,6.2021,6.2024,6.2072,6.2083,6.2116,6.2129,6.2146,6.2159,6.2199,6.2222,6.2228,6.2242,6.227,6.2295,6.2296,6.2308,6.2321,6.2321,6.2258,6.2249,6.2241,6.2232,6.2323,6.2323,6.2388,6.2388,6.2389]}]]